Theta_e
326 329 333 335 335 337 336 334 336 339 340 342 345 347 349 351 351 351 350 350 349 349 347 347 348 348 347 346 346 347 346 346 346 347 347 347 347 348 348 347 348 346 340 336 333 331 330 330 330 330 330 331 333 335 337 340 343 343 344 344 344 344 345 346 345 346 346 347 347 347 347 347 347 348 347 348 348 347 347 347 347 347 347 346 346
323 324 328 333 336 337 337 336 336 336 336 337 341 345 347 350 351 351 351 351 349 349 348 347 347 348 348 347 347 347 347 346 347 346 346 347 347 348 349 348 348 348 343 339 337 334 332 331 331 330 330 329 329 330 331 333 335 337 339 340 341 341 342 343 343 343 343 345 346 346 347 347 348 348 347 347 347 347 346 347 346 346 346 346 346
323 324 324 328 333 335 337 338 337 336 336 335 336 339 342 344 346 347 348 347 346 345 345 345 346 347 348 348 348 347 346 346 345 345 346 346 346 346 348 348 348 349 344 339 338 338 336 334 333 333 332 332 330 330 329 330 330 330 331 332 333 333 335 336 336 336 337 338 339 341 344 346 347 347 346 346 346 345 345 345 345 345 346 346 346
326 327 327 326 329 333 335 337 337 336 337 337 336 337 337 338 340 342 344 344 343 342 344 345 345 346 347 347 348 348 347 346 345 345 345 346 346 346 347 348 348 348 345 341 340 340 339 338 336 335 335 334 334 332 331 330 329 329 328 328 328 327 327 327 328 328 330 331 333 333 336 340 342 342 342 343 343 343 343 343 344 345 345 345 345
330 331 330 330 331 332 334 336 338 338 339 338 338 340 341 340 338 339 341 341 341 342 345 345 345 347 347 347 347 348 347 346 345 344 345 345 345 346 346 347 348 348 347 345 344 342 340 339 339 338 337 337 336 336 336 334 331 330 329 328 328 327 326 326 326 326 326 327 329 329 330 331 332 334 335 337 338 339 339 339 341 342 342 342 341
329 330 331 332 332 332 333 336 339 339 340 340 340 342 344 345 342 339 337 338 339 342 344 344 345 347 349 348 347 347 347 347 345 345 346 346 345 346 346 347 347 348 348 347 347 344 341 340 339 339 339 338 338 338 338 338 336 335 332 330 329 328 328 327 327 326 326 326 327 328 328 328 329 330 331 331 332 332 332 332 333 334 334 334 334
325 326 328 329 329 330 333 337 339 340 341 341 342 342 342 345 345 340 335 335 337 340 343 344 344 347 349 349 348 348 347 347 346 345 346 345 346 346 346 347 347 347 348 348 348 346 344 344 342 340 339 339 339 339 338 339 339 338 337 335 332 330 329 329 328 328 327 328 328 327 328 328 328 328 328 329 329 329 329 329 329 330 331 331 331
325 325 324 325 327 327 332 338 340 340 341 341 341 342 341 344 347 343 335 332 335 340 342 343 345 347 349 349 348 348 347 347 345 345 346 345 344 346 346 346 347 346 347 348 349 347 347 349 347 342 339 339 339 338 339 339 339 339 339 339 338 336 333 332 331 331 331 331 330 330 330 330 330 331 331 331 332 332 333 333 334 335 335 336 336
329 328 325 325 327 328 332 339 341 341 342 341 341 342 341 343 347 347 341 333 335 340 341 341 344 348 350 350 348 347 347 347 345 345 346 345 344 345 346 346 346 346 347 347 348 349 349 350 349 346 340 340 340 339 339 339 339 339 339 339 340 339 338 337 336 336 335 335 336 335 336 336 336 336 336 337 337 338 338 339 339 339 340 340 340
332 330 327 328 331 332 334 339 341 341 342 342 342 342 342 344 346 349 346 339 336 339 340 341 344 347 349 350 349 349 348 347 345 345 346 345 344 345 346 346 346 346 346 347 347 348 349 349 350 349 344 343 344 343 340 339 339 339 339 339 339 339 339 339 339 339 338 338 339 339 339 339 339 340 340 340 340 341 341 341 341 342 342 342 342
335 331 330 332 334 335 337 338 340 341 341 342 342 342 343 345 346 348 349 344 338 338 339 341 344 346 347 348 349 350 349 348 346 345 345 345 344 344 345 346 346 346 346 346 346 347 348 348 349 349 348 348 348 346 343 341 341 340 339 338 338 338 339 339 339 340 339 339 339 339 339 339 340 340 340 340 341 341 341 342 342 342 343 344 345
339 336 334 335 337 338 340 341 341 342 342 342 342 342 343 346 348 349 349 347 341 337 338 342 344 346 346 346 347 349 349 348 347 345 345 345 345 344 344 345 346 347 346 346 346 346 346 348 348 349 350 350 350 348 345 345 344 342 341 340 339 338 339 339 339 339 339 339 339 339 339 339 340 340 340 340 340 341 341 341 342 342 343 344 346
342 341 340 339 340 340 341 342 342 342 342 342 342 342 343 345 348 348 348 348 346 341 340 343 346 346 347 346 345 346 347 347 345 344 344 345 345 344 344 344 345 345 346 346 346 346 346 346 346 348 348 349 349 349 348 347 345 344 342 341 340 340 340 339 339 339 339 339 340 339 340 340 340 340 340 340 340 341 341 340 341 341 342 344 346
344 343 343 343 342 343 343 343 344 343 341 340 341 341 342 344 346 347 347 348 348 346 343 344 347 347 347 347 344 342 343 344 344 343 342 344 345 345 345 345 344 344 345 345 345 345 345 345 345 346 347 348 348 349 349 348 344 342 342 342 342 341 341 341 341 340 340 340 340 340 341 341 342 342 342 342 342 342 342 342 343 343 343 345 346
344 344 344 344 344 345 345 345 345 344 342 342 341 340 341 342 343 346 348 349 349 349 346 345 346 348 348 348 346 343 341 341 343 343 343 343 344 346 346 345 344 344 344 344 344 344 344 344 344 344 345 346 347 348 349 348 344 342 343 343 343 344 343 343 343 343 342 342 342 342 342 342 343 344 343 343 343 344 344 345 345 346 346 347 348
344 345 345 345 346 346 346 344 343 343 343 342 343 342 340 340 342 347 350 351 350 350 349 347 346 348 348 348 347 347 345 342 342 344 345 345 345 345 346 345 344 345 344 344 344 344 343 344 344 343 344 344 346 346 348 348 345 343 344 345 347 348 347 345 343 344 344 344 344 344 343 343 344 343 344 344 345 345 346 346 347 347 348 347 348
344 345 346 346 346 346 346 345 345 343 343 343 343 344 343 342 342 345 348 350 350 351 351 349 347 347 347 346 347 348 346 344 344 345 346 346 345 345 345 345 345 345 345 345 344 343 343 343 343 343 342 342 344 345 346 347 347 346 346 348 349 351 351 348 346 346 347 347 347 347 346 345 345 346 345 346 346 347 346 346 346 346 347 347 347
345 345 346 347 346 347 348 348 348 346 345 345 344 344 345 344 345 347 348 350 351 351 352 351 348 346 346 346 346 347 346 346 347 347 346 346 347 346 346 345 345 345 345 345 344 344 343 343 341 342 342 342 342 344 345 346 347 348 348 349 350 351 352 351 351 351 350 350 349 348 347 347 348 347 347 347 346 346 345 344 344 344 345 345 344
346 346 347 348 348 348 349 349 349 348 347 347 346 345 344 344 346 348 348 349 351 351 352 352 350 347 345 346 346 347 347 347 348 348 348 348 348 347 347 346 346 345 345 345 345 344 343 343 342 342 342 342 342 343 344 345 346 347 348 349 350 350 352 352 352 353 351 349 348 347 348 349 349 348 347 346 346 344 344 343 343 344 344 344 344
348 349 349 350 351 351 351 351 351 351 351 351 351 349 347 347 347 347 348 350 350 351 351 352 352 349 346 346 346 347 348 348 348 349 350 350 348 348 348 347 347 347 347 346 346 345 344 344 343 343 342 342 343 342 343 345 345 346 347 347 349 350 350 351 352 353 352 350 348 348 348 348 348 349 347 346 345 344 343 343 343 344 344 344 345
352 353 352 351 353 354 353 352 351 352 353 353 353 353 352 352 350 349 349 350 350 351 351 351 353 352 349 346 346 346 346 347 349 351 351 351 350 349 348 348 347 347 346 347 347 346 346 346 344 343 343 342 342 342 341 343 345 346 346 347 348 349 350 350 352 352 353 351 349 349 348 348 349 349 348 346 345 344 344 344 344 344 344 344 344
356 354 351 349 353 355 354 354 353 353 353 353 353 354 354 354 353 352 351 351 351 351 351 351 352 353 352 348 346 345 346 348 350 351 351 351 351 350 350 349 349 348 347 347 347 347 347 346 346 345 343 342 342 342 341 342 345 345 346 346 348 349 350 350 350 351 352 351 350 349 349 349 349 348 347 345 345 345 345 345 344 344 344 344 343
355 354 352 349 350 351 352 353 354 354 354 353 352 352 353 353 353 353 352 351 351 351 351 351 351 353 353 350 347 345 346 347 349 351 351 351 351 350 350 350 351 350 348 348 348 347 348 347 347 346 345 342 341 342 342 342 343 345 346 346 347 348 349 349 349 350 352 351 351 350 349 349 348 347 346 345 346 346 345 344 343 343 342 341 341
353 352 350 347 346 347 349 350 351 353 353 353 353 352 353 353 354 354 353 353 352 351 351 351 352 352 352 351 348 344 344 347 349 350 351 351 351 351 351 351 351 350 349 349 349 349 348 349 348 347 346 344 342 341 342 342 343 344 346 346 346 347 348 348 349 349 351 352 352 350 349 348 347 346 345 346 346 345 342 340 340 340 341 340 340
349 347 343 340 340 341 344 346 346 348 351 352 353 354 354 353 353 354 355 354 354 353 352 351 351 351 351 351 350 347 344 345 348 350 351 352 352 352 352 351 350 350 349 350 349 349 349 349 349 348 347 345 345 343 341 342 343 344 346 347 346 347 347 348 348 349 351 351 351 350 349 348 346 346 346 346 345 342 339 338 338 339 340 340 341
344 342 338 335 334 336 340 343 345 347 349 350 351 353 353 353 353 354 355 354 354 354 353 352 352 351 351 351 351 350 347 345 347 349 350 351 352 352 352 352 351 351 350 349 350 350 350 349 349 349 348 347 346 345 343 341 342 344 346 347 347 347 347 348 348 348 349 350 350 349 348 347 346 346 345 345 343 339 336 336 336 338 339 340 341
343 339 335 333 333 336 339 342 344 345 346 348 348 349 351 352 352 352 352 352 352 352 352 352 352 351 350 350 351 351 349 346 345 348 350 350 351 352 353 353 353 351 350 350 349 349 350 350 350 349 349 348 347 345 344 343 342 344 346 346 347 347 347 347 347 347 347 348 349 348 348 347 346 345 345 343 340 336 333 333 334 336 338 340 340
340 335 333 333 335 337 339 340 341 341 342 343 344 345 348 351 349 348 349 350 351 351 349 350 351 351 351 350 351 351 350 348 345 346 349 350 352 353 353 354 353 353 352 351 350 349 350 350 350 350 350 349 348 346 346 344 343 344 345 346 346 347 346 347 347 347 347 348 348 349 348 346 345 345 344 342 338 334 331 330 332 337 338 338 339
333 332 333 336 337 338 339 339 340 340 340 341 342 344 347 348 346 346 348 350 351 352 352 351 352 352 352 351 351 351 350 349 346 345 346 349 351 353 353 354 354 353 353 352 351 350 349 350 351 351 350 349 348 348 347 346 345 344 345 346 346 346 347 347 347 347 347 348 348 348 347 346 346 345 342 340 337 332 329 328 331 337 339 338 338
331 333 335 337 338 338 339 339 339 340 341 341 342 343 345 345 345 345 346 348 351 352 352 352 351 352 353 352 352 351 351 351 349 346 345 347 350 353 353 354 354 354 353 353 353 351 350 350 350 351 350 349 348 348 348 347 346 345 345 346 346 346 347 347 346 347 347 348 347 347 346 346 346 344 342 339 334 329 326 327 333 338 339 338 339
334 336 337 337 338 337 338 338 338 340 340 342 343 344 344 345 346 346 346 348 350 351 352 352 352 351 352 352 351 351 351 351 351 350 347 345 347 351 354 353 353 353 354 354 354 351 349 350 350 350 351 350 349 348 348 347 346 346 346 346 346 347 347 346 345 346 347 347 347 346 347 347 345 343 340 336 331 326 324 326 333 338 338 339 339
336 339 338 338 337 337 336 337 337 338 340 342 343 344 344 345 347 348 347 349 351 351 352 352 352 352 351 351 350 349 349 350 350 351 349 347 346 349 352 353 353 353 354 354 354 352 349 349 350 350 351 351 350 349 348 347 347 347 346 346 347 347 346 346 346 347 347 347 347 347 347 346 344 341 338 332 327 325 325 326 331 335 337 337 334
333 338 339 338 337 336 336 335 335 336 338 340 342 343 344 345 346 347 347 348 350 350 351 352 353 353 352 351 350 348 348 349 350 351 350 348 347 348 351 353 353 353 354 354 354 353 350 350 351 351 351 351 350 349 349 348 347 348 347 347 347 347 347 347 347 348 348 347 347 347 347 346 343 339 335 330 326 326 328 328 329 332 334 333 331
332 337 339 338 337 336 335 334 334 334 335 337 339 342 343 343 344 345 346 346 348 349 351 352 352 353 353 353 352 351 350 350 349 350 350 350 348 348 349 352 353 353 354 354 353 353 352 351 351 351 352 352 351 350 349 349 349 348 348 348 348 347 347 348 348 348 348 347 347 347 347 344 340 337 334 330 329 328 329 329 329 331 331 331 332
332 335 338 338 338 337 336 335 334 334 334 335 337 339 342 343 344 344 345 345 346 348 350 351 352 352 353 353 353 352 352 351 350 349 350 350 350 349 349 351 353 353 353 354 354 353 352 352 351 351 351 352 352 351 350 349 349 349 349 349 349 348 348 348 348 348 348 347 347 347 345 342 339 337 335 333 331 330 330 330 330 330 331 331 332
331 334 336 337 337 336 336 335 334 334 333 334 335 336 338 340 342 344 344 344 345 346 348 350 351 353 353 353 353 352 352 352 351 350 350 349 350 350 349 350 352 353 352 353 353 354 353 352 351 351 352 352 352 352 351 350 349 349 350 350 349 349 349 348 349 348 348 347 347 346 344 341 339 338 337 335 333 332 331 332 332 332 332 332 332
332 333 334 334 334 334 335 335 334 334 334 334 334 334 335 337 339 341 342 343 344 344 345 347 349 351 353 353 353 354 353 353 352 352 350 349 349 350 350 350 351 352 352 351 352 354 353 352 352 351 351 352 353 352 351 350 349 350 351 351 350 350 349 349 349 348 347 347 346 345 343 340 339 338 337 336 334 334 334 335 334 334 334 333 333
333 333 333 333 333 333 333 334 333 333 333 333 333 334 334 334 336 338 339 341 342 343 344 345 347 349 351 353 353 354 354 353 353 353 352 351 349 349 348 349 350 351 352 351 352 354 354 353 352 351 351 352 352 351 351 350 350 350 351 351 350 350 349 349 348 348 347 346 346 344 342 340 339 338 337 336 336 335 336 336 336 336 335 334 333
334 333 333 332 332 333 333 333 333 333 333 333 334 334 333 333 334 335 337 339 341 342 343 344 345 347 349 352 353 353 354 354 353 353 353 353 352 350 349 349 349 350 351 351 351 353 354 353 352 352 351 352 352 351 351 350 350 350 351 351 351 350 349 348 348 347 346 346 345 343 341 340 339 338 338 337 337 337 337 337 337 336 335 333 332
332 331 331 331 332 333 334 334 334 333 334 334 334 333 333 332 332 333 336 338 341 342 342 343 344 346 348 350 352 353 353 354 354 353 353 353 354 353 351 350 349 349 350 350 350 351 353 354 354 352 351 351 352 352 351 350 350 351 352 351 350 349 348 347 347 347 347 346 345 344 341 339 339 339 338 337 337 337 337 338 337 336 334 332 331
330 329 329 330 332 333 333 334 334 334 334 333 333 332 332 332 332 332 334 337 341 343 343 343 343 345 347 348 350 351 352 353 353 353 353 353 354 355 353 352 351 350 349 350 350 350 351 353 355 354 351 351 352 352 351 350 350 350 351 350 349 348 347 347 347 347 345 344 344 344 342 340 339 339 338 338 338 338 337 337 337 335 333 331 330
330 330 331 333 334 334 334 335 334 334 333 332 332 332 332 333 333 333 334 337 341 343 343 344 343 344 345 347 348 349 351 353 353 353 353 352 353 354 354 354 353 352 350 350 351 351 351 353 354 354 352 351 352 352 351 350 350 349 350 349 349 348 347 347 348 346 343 341 342 342 342 340 339 339 339 338 338 338 337 337 336 334 332 330 328
332 333 334 335 335 335 335 334 334 334 334 333 332 332 333 334 335 335 335 336 338 340 341 343 344 344 344 345 345 346 348 351 353 353 353 353 353 353 353 354 354 353 352 352 351 351 351 352 354 354 353 351 351 352 351 350 350 349 349 349 347 347 346 347 347 345 343 341 341 342 342 340 339 340 339 338 338 338 337 337 336 333 332 329 327
334 334 335 335 335 334 335 334 334 335 334 334 333 333 334 336 337 337 337 337 338 339 340 342 344 344 344 343 344 344 345 349 351 352 353 353 353 353 352 353 353 354 353 352 352 352 351 352 353 354 353 351 351 352 351 350 350 349 349 348 347 346 346 346 346 345 343 342 341 341 342 341 340 340 340 339 339 338 337 337 335 332 330 328 326
335 334 334 335 335 335 335 335 334 335 335 335 335 335 336 337 337 339 339 339 339 339 340 342 343 344 344 344 344 344 344 347 350 352 353 353 354 353 353 353 353 354 354 353 352 352 351 352 353 352 351 351 351 352 351 351 350 349 349 348 347 347 346 346 345 344 343 343 341 341 342 341 340 340 340 339 338 338 338 337 334 332 330 328 326
334 334 334 334 335 335 335 335 335 336 336 336 336 337 337 338 339 339 339 339 340 339 339 340 342 344 344 344 345 344 345 347 349 351 352 353 353 354 353 354 353 353 353 353 353 353 353 354 354 353 352 351 351 351 351 351 351 350 350 349 348 347 347 346 346 345 344 343 342 341 341 341 340 340 339 338 338 338 338 336 334 332 330 328 326
334 334 334 335 335 335 336 336 337 337 337 337 337 337 338 338 339 340 340 340 341 341 340 340 342 343 344 344 344 344 345 347 348 350 352 353 353 353 353 354 353 352 353 353 354 353 353 354 354 354 353 352 352 352 351 351 351 351 351 349 347 347 347 346 346 345 345 343 342 341 340 340 340 340 339 338 337 337 337 335 333 331 330 328 327
334 335 335 335 336 336 337 337 337 337 337 338 339 339 339 340 340 341 341 340 341 341 340 341 342 344 344 344 344 344 345 346 347 348 350 352 353 353 352 352 351 350 351 352 353 352 351 351 352 352 352 353 353 354 353 352 351 351 351 349 347 347 347 346 346 346 345 343 341 340 340 340 340 339 339 338 337 337 337 335 333 332 330 328 327
334 334 334 335 336 337 338 338 338 339 338 338 340 341 341 341 340 341 341 341 341 340 340 340 342 343 343 344 344 344 345 346 347 348 349 351 353 353 352 352 351 350 350 351 351 351 350 351 351 352 353 353 354 354 353 352 351 350 349 349 347 347 347 347 346 346 345 343 341 340 340 340 340 339 339 338 337 337 336 334 333 332 331 328 327
335 334 334 335 336 337 338 339 340 340 340 340 340 341 341 341 341 341 341 341 341 340 340 340 341 342 343 344 345 345 346 347 347 348 349 350 352 353 353 352 350 350 350 350 351 351 352 353 353 353 354 355 355 355 353 352 351 350 350 350 348 348 348 347 346 346 345 343 341 341 340 340 340 339 338 337 337 336 336 334 332 331 330 327 326
335 335 336 337 337 338 339 340 341 341 341 340 340 340 340 340 341 341 341 341 340 340 341 340 340 342 343 343 345 345 346 347 347 348 350 351 352 353 353 353 352 351 350 350 350 351 351 353 354 355 355 355 354 354 353 353 351 350 351 351 350 349 349 347 346 345 344 343 341 341 340 340 340 339 338 337 336 336 334 333 331 330 329 327 326
Wind_Speed
10 9 9 9 7 7 6 4 4 3 4 4 4 5 6 6 7 8 9 10 11 10 10 10 9 8 8 8 9 9 10 10 10 10 10 9 9 9 9 7 6 7 6 6 5 4 3 2 2 2 3 5 7 9 11 12 13 13 12 11 12 12 12 12 12 12 12 12 12 12 12 13 13 12 12 12 12 12 11 11 12 12 12 12 12
11 11 11 11 10 9 9 8 7 6 6 6 6 6 7 8 8 9 10 10 10 10 11 12 12 11 9 9 10 10 10 10 9 10 10 10 10 10 9 8 7 7 6 6 6 5 4 2 2 1 1 2 3 4 6 8 10 13 14 14 14 14 14 14 14 13 13 13 13 13 13 13 12 12 12 12 11 11 12 12 12 12 12 12 13
13 12 12 12 11 11 11 10 10 9 9 9 9 10 10 10 10 11 11 11 10 10 10 13 14 14 13 12 11 11 10 10 10 10 10 10 10 10 10 9 8 7 7 6 6 5 5 3 2 2 1 1 1 2 3 4 5 7 9 11 12 13 14 15 15 15 14 14 13 12 13 12 12 12 12 11 12 12 12 12 13 13 13 13 14
14 13 13 13 12 12 12 12 12 11 12 12 13 14 14 14 14 14 14 14 13 12 12 14 15 15 16 16 14 13 12 11 11 11 10 11 11 11 11 10 9 8 7 6 6 6 6 5 3 3 2 2 1 1 2 2 2 3 4 5 6 8 9 10 11 12 13 13 13 12 12 12 13 13 12 12 12 12 13 13 13 13 14 14 13
15 14 14 14 13 13 13 13 13 13 13 14 15 16 17 18 18 17 17 17 17 14 13 15 16 15 15 16 17 16 14 13 13 12 12 12 11 11 11 11 10 9 8 7 7 6 6 6 5 4 4 3 2 2 2 1 1 1 1 2 3 4 5 5 6 8 9 10 11 12 12 13 13 13 13 13 13 13 13 13 13 14 14 14 14
16 16 16 16 16 15 14 13 12 13 14 14 15 16 18 20 20 21 20 20 19 16 15 15 16 16 15 15 16 16 16 16 15 14 14 13 12 12 11 11 10 10 9 8 7 6 5 5 6 6 5 5 4 4 3 3 2 1 1 1 2 2 2 3 4 4 6 7 8 9 10 11 11 11 11 11 12 13 13 13 12 13 13 14 14
18 18 18 18 18 17 15 14 12 14 15 15 17 18 19 20 20 21 22 21 21 18 16 16 15 16 16 15 15 16 17 18 17 15 15 14 13 12 11 11 11 11 10 10 8 7 5 5 5 6 6 6 6 5 5 4 3 3 2 2 2 2 1 2 2 3 3 4 5 6 6 7 8 8 8 8 9 9 9 9 9 10 10 10 10
20 20 20 20 20 19 17 15 14 15 16 17 18 19 20 20 20 20 22 21 21 19 17 17 15 15 16 17 16 16 17 18 18 17 16 14 13 13 12 11 11 11 11 11 10 8 7 6 6 6 6 6 6 6 6 5 5 4 4 3 3 2 2 2 2 2 2 2 3 3 4 4 4 5 5 5 6 6 6 6 7 7 8 8 8
21 22 22 20 20 19 18 17 16 16 17 17 19 19 20 20 19 19 20 22 22 21 19 18 16 15 16 18 18 18 18 19 20 19 17 15 14 14 12 11 11 12 12 12 11 10 10 9 8 7 8 7 7 7 7 6 6 6 6 5 4 4 4 3 3 3 3 3 3 3 3 3 4 4 4 5 5 5 6 6 7 8 8 9 9
20 20 20 19 19 19 18 17 17 18 18 18 18 19 19 20 19 19 19 21 23 22 21 19 17 16 17 18 19 19 19 19 21 21 19 16 15 14 13 13 12 12 12 12 12 11 11 11 10 10 9 9 9 8 8 7 7 7 7 6 6 5 5 5 5 4 4 4 4 5 5 5 5 5 5 6 6 7 7 8 8 9 9 10 10
17 18 19 18 18 18 18 17 17 18 19 20 19 19 19 19 20 20 20 20 22 24 22 20 18 17 18 19 19 19 19 19 21 23 21 17 15 15 15 14 14 13 13 13 12 12 12 12 12 12 11 10 10 10 9 9 8 8 8 8 7 7 7 7 6 6 6 6 7 7 7 7 7 7 8 8 8 9 9 10 10 10 11 11 12
16 17 18 19 18 18 17 17 18 19 20 21 21 21 21 20 20 21 21 20 21 23 23 21 19 18 20 21 20 19 19 19 21 24 24 19 16 16 16 16 16 15 15 14 13 13 13 12 13 13 13 12 11 11 11 11 10 10 9 9 9 9 8 8 8 8 8 8 8 9 9 9 9 9 10 11 11 12 12 12 12 13 13 13 14
17 18 19 20 20 19 19 19 20 21 21 21 22 22 22 21 21 21 22 22 21 21 22 20 19 19 21 21 21 19 19 20 21 24 25 22 17 16 16 16 17 16 15 15 15 15 14 14 14 14 14 14 13 13 13 13 12 12 11 10 10 10 10 9 9 9 9 10 10 10 10 11 11 11 12 13 13 14 14 15 15 15 15 15 15
19 19 20 22 22 23 23 23 23 23 23 23 24 23 23 22 21 21 22 23 22 20 20 20 19 19 20 22 23 21 19 19 20 22 25 24 20 17 16 16 17 16 15 15 16 16 16 16 16 16 15 15 14 14 14 14 13 12 11 11 10 10 10 10 10 10 11 11 11 12 12 12 13 13 14 15 15 16 16 16 17 17 17 17 17
22 21 22 23 25 27 27 27 27 27 27 27 27 25 24 23 22 22 22 23 23 21 20 21 21 19 19 21 22 22 21 18 16 17 20 23 23 21 18 17 17 17 17 17 16 16 16 16 17 17 16 15 15 14 15 16 15 13 12 11 11 11 11 11 11 11 12 12 13 13 14 14 15 16 17 17 17 17 18 18 19 19 19 18 19
24 24 25 26 28 28 27 26 26 27 27 28 28 27 26 25 22 23 23 23 24 22 20 21 23 20 18 18 18 17 19 18 16 14 14 19 23 24 22 20 19 19 20 19 19 18 17 17 17 17 17 17 16 15 15 16 16 15 14 13 12 11 11 12 12 13 13 13 14 14 15 16 17 18 18 18 18 18 19 20 20 21 20 19 20
27 26 27 29 30 29 28 28 27 27 27 28 29 28 27 26 24 24 25 25 24 23 21 21 23 23 21 19 17 15 15 17 18 16 13 15 19 22 22 21 20 19 19 20 20 20 20 19 18 18 18 18 18 17 17 17 17 17 17 16 14 13 12 12 13 13 13 14 14 15 15 16 17 18 18 18 18 18 19 20 21 20 19 19 19
28 28 29 31 32 32 32 31 30 28 27 28 29 28 28 27 26 25 26 26 24 23 23 22 22 25 24 23 21 19 18 18 20 20 17 14 14 16 18 19 18 17 16 17 18 20 20 20 20 20 20 20 19 19 19 18 18 18 18 17 16 15 13 13 13 13 13 14 15 15 15 15 16 17 18 18 18 18 19 20 20 19 18 18 17
29 28 28 29 30 31 32 31 30 29 28 28 29 29 29 29 28 28 27 27 26 25 25 23 22 25 26 25 24 23 22 21 22 21 20 19 16 14 14 14 14 14 14 13 13 15 17 19 20 20 20 21 21 21 21 20 18 18 18 18 17 15 15 15 15 15 14 15 16 16 15 15 16 17 18 18 19 18 18 18 18 17 17 16 16
29 25 24 25 26 27 28 27 27 28 28 28 29 29 31 31 32 31 29 27 26 26 26 25 24 25 26 26 26 24 23 22 22 21 20 23 22 17 14 14 13 14 13 13 12 12 13 15 17 18 17 18 19 21 22 21 20 19 19 18 17 16 16 17 17 17 17 16 16 15 15 16 17 18 18 19 19 18 17 17 17 17 17 16 17
25 20 20 24 24 24 24 24 24 25 26 28 28 29 30 31 32 31 28 27 27 26 27 27 27 26 26 27 26 25 24 23 21 21 21 23 25 23 19 17 17 17 15 15 14 14 13 13 14 16 16 15 17 20 22 22 21 20 20 19 18 17 18 18 18 18 18 17 16 16 17 17 18 18 18 19 19 19 18 18 18 18 18 18 18
22 18 18 22 21 21 22 21 22 23 25 26 27 27 28 29 29 29 27 27 28 28 29 28 28 27 26 27 28 26 25 23 21 21 21 21 23 25 24 22 22 20 18 17 17 16 16 15 15 15 16 16 16 18 21 22 22 21 20 20 19 18 19 19 19 19 19 18 17 18 17 17 17 17 17 19 20 19 19 19 18 18 18 17 17
23 21 20 21 21 21 21 20 21 21 23 25 26 27 26 26 27 27 27 27 28 29 30 29 28 28 27 27 29 29 27 25 23 21 20 20 22 24 25 23 23 22 20 18 17 17 16 16 16 16 15 16 16 17 18 20 23 22 20 20 20 20 20 21 21 20 20 19 19 18 17 17 17 17 18 19 20 20 18 17 17 17 16 16 15
25 24 23 23 23 22 22 22 22 22 23 24 25 26 25 24 25 26 26 27 28 28 28 27 27 28 28 27 28 30 29 28 25 22 21 21 20 23 24 23 23 23 21 18 18 17 16 15 15 15 14 15 16 17 18 19 22 23 22 21 21 22 22 22 21 21 21 20 19 18 17 17 17 18 19 19 19 18 17 16 15 14 13 12 12
27 27 26 25 25 25 24 23 23 23 24 25 24 24 24 24 25 27 28 29 28 27 26 26 26 28 28 28 28 29 30 29 27 25 24 23 23 24 24 23 24 25 23 21 19 18 17 16 14 13 14 15 15 16 17 18 21 24 24 23 22 23 22 22 22 21 21 20 18 18 17 17 17 18 19 19 18 17 15 14 13 11 10 9 9
29 29 29 28 27 26 25 24 23 23 23 25 25 24 25 25 25 28 31 31 29 26 25 25 26 27 27 27 28 29 30 30 29 28 26 25 25 25 24 22 23 25 25 23 21 19 18 16 15 14 13 14 15 16 17 18 21 23 24 23 23 23 23 23 22 21 20 19 18 17 17 17 18 18 18 17 16 15 13 12 11 10 9 8 8
30 30 30 29 27 26 26 25 24 24 24 25 25 24 24 24 24 27 30 30 29 27 25 26 27 28 27 26 27 29 30 31 31 30 27 26 26 25 24 23 23 24 24 24 23 22 19 17 16 15 14 14 14 15 16 17 19 21 22 23 23 23 23 23 21 20 20 19 18 17 17 18 19 18 17 16 14 13 12 11 10 9 8 8 8
31 31 30 28 28 27 26 25 24 24 25 25 25 23 23 23 24 27 29 27 27 28 28 28 28 28 27 26 27 29 30 31 32 32 29 27 27 25 24 25 24 24 24 24 25 23 20 18 17 16 16 15 15 14 15 16 18 20 21 22 22 22 22 21 20 20 20 19 18 18 19 19 18 17 16 14 13 12 11 10 10 8 8 9 9
30 30 29 28 27 27 26 26 24 24 23 23 23 22 23 24 25 25 26 26 26 27 28 28 28 28 28 28 28 29 29 29 31 32 31 29 27 26 26 25 24 25 24 24 25 24 21 19 17 16 15 16 16 16 16 17 19 20 21 21 21 21 21 21 20 20 20 19 19 19 20 19 17 15 14 13 12 12 11 10 9 8 8 9 9
28 28 29 28 28 28 28 27 26 24 23 22 23 23 24 26 26 24 24 25 26 26 26 29 30 30 31 30 29 30 29 29 30 32 33 32 29 27 26 25 25 25 25 25 26 26 24 22 19 17 15 16 17 18 17 18 20 21 21 21 21 21 21 20 20 20 20 20 20 20 19 17 15 14 13 12 12 11 11 10 9 9 10 10 9
25 26 27 28 28 28 28 28 27 25 24 22 22 23 24 26 26 25 24 24 26 28 27 28 31 32 33 32 31 31 30 29 30 31 33 34 32 29 27 26 26 25 25 25 27 28 27 25 22 19 17 16 17 18 19 20 21 21 21 21 21 21 21 20 20 20 20 20 19 18 17 15 14 12 12 12 12 12 11 10 10 11 11 11 9
24 24 25 26 26 27 27 27 27 26 25 24 23 24 25 26 26 26 25 25 27 28 28 28 30 32 33 33 33 32 31 30 30 31 32 34 34 32 29 27 26 26 26 26 29 31 30 28 24 21 19 19 18 18 19 20 21 22 22 22 22 21 21 20 20 20 19 19 18 17 16 14 13 12 11 11 12 12 11 11 11 12 11 11 9
24 24 24 24 25 26 26 26 27 27 27 26 25 25 26 26 27 28 28 28 28 29 29 29 30 31 33 34 34 33 32 32 32 31 32 33 34 34 32 29 27 27 27 28 30 32 31 29 26 22 20 20 21 20 20 21 22 23 23 22 22 22 21 20 19 19 18 18 17 16 15 14 12 12 11 11 12 12 11 11 11 11 11 10 9
24 24 24 24 24 25 25 26 26 27 27 27 27 27 27 28 28 29 30 30 30 31 31 30 30 31 32 34 35 35 34 34 34 33 33 33 33 34 33 31 29 28 28 28 30 32 32 31 27 23 21 20 21 22 21 22 23 23 23 24 23 22 20 19 19 18 18 17 17 16 15 13 13 12 11 11 11 11 10 10 10 10 10 10 9
23 24 24 25 25 25 26 26 27 27 27 27 27 28 28 28 29 29 31 32 32 32 32 32 31 31 32 33 35 35 35 36 36 35 35 34 33 34 34 33 32 31 29 28 28 30 32 32 28 25 22 21 21 22 21 22 23 23 24 24 23 21 20 19 18 18 18 17 17 16 15 14 14 12 11 11 12 11 11 11 10 10 10 10 10
23 23 24 25 26 26 27 27 28 27 27 27 27 28 28 29 29 30 31 32 34 34 34 34 33 32 32 34 35 35 36 38 38 37 37 36 35 35 35 34 34 33 30 28 28 29 31 32 30 27 24 22 22 22 22 23 24 24 24 24 22 20 20 19 18 18 18 18 17 16 16 16 14 12 11 11 12 12 12 11 11 11 11 11 11
22 23 24 25 26 27 27 28 28 28 28 28 28 28 28 29 30 31 32 33 34 35 36 36 35 34 33 34 34 35 36 38 39 39 39 38 36 36 37 36 36 34 32 30 29 29 30 32 32 29 26 25 23 23 23 24 25 25 25 24 23 22 21 19 19 19 19 18 17 17 17 17 15 13 12 12 13 13 12 12 12 13 13 13 12
23 24 26 27 28 28 28 29 29 30 30 30 30 29 29 29 30 31 32 34 35 36 36 36 36 35 34 34 34 34 35 37 39 40 40 39 38 38 38 38 37 36 35 33 31 29 30 31 32 31 30 28 26 25 24 25 26 27 27 26 25 23 21 21 20 21 21 20 20 20 19 18 16 13 12 12 13 13 12 13 13 14 14 14 13
26 27 28 29 29 29 30 30 30 30 31 31 31 31 30 31 31 31 32 34 35 36 37 37 37 36 34 33 33 34 35 36 38 39 40 40 40 40 39 38 37 37 37 35 33 31 31 32 32 33 33 31 29 27 26 25 26 27 28 28 27 25 24 23 22 22 22 21 21 21 20 18 16 14 13 13 13 13 13 14 15 15 15 15 14
28 28 29 30 30 30 30 30 30 31 31 32 32 33 33 33 33 33 32 33 33 34 36 37 37 37 36 34 33 34 34 36 37 39 39 40 41 41 40 39 38 38 38 37 35 34 34 34 33 33 33 33 32 29 28 27 28 29 29 29 28 26 25 24 23 23 22 22 22 22 21 19 17 16 15 15 14 14 14 15 15 16 16 16 15
29 29 29 30 30 31 31 31 31 31 32 33 34 34 34 34 34 34 33 33 33 33 34 35 36 37 37 37 36 35 34 35 36 38 38 40 41 41 40 40 40 40 39 39 38 37 37 36 35 34 34 34 34 32 31 32 32 31 30 29 28 26 25 24 24 24 24 24 24 24 23 21 19 18 17 16 15 15 16 16 17 18 18 17 15
29 29 29 29 30 30 31 32 32 33 34 35 35 35 34 34 35 34 34 33 32 33 34 33 34 36 37 38 38 37 35 33 34 37 38 39 40 41 41 40 40 40 40 40 40 39 38 37 36 36 36 36 36 35 35 34 32 31 30 30 29 28 26 25 26 27 27 26 26 25 24 22 21 20 19 17 16 16 17 17 17 18 19 17 16
28 28 29 30 30 31 32 34 35 35 36 36 36 35 34 34 34 35 35 34 33 34 36 35 34 35 35 36 37 37 36 33 33 35 38 39 40 41 41 41 40 40 40 40 41 40 38 37 37 37 37 38 38 36 36 35 33 33 32 31 30 29 28 28 30 30 30 30 28 27 25 24 23 22 20 18 17 17 17 18 18 20 20 19 17
28 29 29 31 32 32 33 34 36 36 36 35 35 35 35 35 35 36 37 36 35 35 36 36 35 34 35 35 35 35 36 34 32 33 35 37 39 41 42 42 41 40 39 39 40 39 37 37 38 38 39 38 38 38 37 36 35 34 33 32 31 31 30 30 31 32 32 32 31 29 27 26 25 23 22 20 19 17 18 19 20 21 21 20 18
29 30 31 32 32 33 33 34 35 36 35 34 34 34 35 35 35 36 38 38 37 36 36 36 36 35 34 34 34 34 35 33 31 32 34 36 37 39 40 41 41 40 39 39 39 37 36 37 38 40 40 39 39 40 38 37 37 37 37 35 34 32 31 31 31 31 32 32 32 31 29 28 27 25 24 22 20 19 20 21 22 22 22 22 20
30 32 32 33 33 33 33 34 35 36 36 35 34 34 35 34 33 34 36 38 38 37 37 36 36 36 34 33 33 34 34 32 32 33 34 35 36 36 37 39 40 41 41 40 39 37 38 38 39 39 39 39 40 39 38 38 38 39 39 38 35 33 31 30 30 30 31 33 33 32 30 29 28 26 25 24 21 20 22 24 24 24 24 23 20
32 33 33 34 34 33 33 34 36 37 37 36 35 34 34 34 32 32 35 37 37 36 35 35 36 35 35 34 33 34 35 35 34 34 34 34 34 35 37 39 41 42 42 41 40 39 40 40 40 38 37 38 39 39 39 39 38 39 39 36 33 31 30 30 31 32 33 34 32 31 30 30 29 28 27 25 22 21 23 24 25 25 24 22 20
34 34 35 35 35 35 35 36 37 38 38 37 35 35 34 34 32 31 34 36 36 35 34 35 35 35 34 34 33 34 35 36 36 35 34 31 30 32 36 39 39 41 43 42 41 40 41 41 40 39 38 38 39 39 39 39 39 40 39 34 30 31 32 33 34 35 36 35 33 31 30 29 28 28 27 25 24 23 23 24 24 23 23 22 21
35 36 36 36 36 37 37 37 36 37 38 37 35 35 34 33 32 32 34 35 35 34 34 34 35 35 34 33 33 34 35 36 37 36 33 30 29 31 35 37 36 38 41 41 41 41 41 41 39 38 38 39 40 40 40 41 41 40 37 33 31 33 35 35 37 38 38 37 35 33 32 30 28 29 27 25 24 24 24 24 23 23 23 22 22
36 36 36 37 37 37 37 37 36 36 37 37 36 35 35 33 32 33 35 36 35 33 33 35 35 35 34 33 32 33 35 36 36 35 32 30 29 31 33 35 36 38 40 40 40 41 41 41 40 39 40 41 42 42 42 42 42 39 36 33 32 34 36 37 38 39 39 38 36 35 35 33 31 29 27 26 25 25 24 23 23 24 24 24 23
35 35 36 37 37 37 36 36 35 34 36 37 34 33 33 33 33 34 35 36 35 33 33 34 34 34 34 33 32 33 34 35 35 33 31 30 31 32 34 35 36 38 39 39 40 40 41 43 43 43 43 43 43 43 43 43 44 40 36 33 32 33 36 39 40 40 41 41 40 38 37 36 34 31 28 28 28 28 26 25 24 25 25 25 24
Wind_Direction
235 234 241 246 249 249 251 253 248 247 260 280 287 263 244 246 255 259 263 265 269 275 276 274 271 275 275 271 272 279 286 293 300 301 299 301 303 297 295 302 315 329 335 332 327 312 301 282 259 249 240 234 228 226 225 224 227 233 238 241 245 247 248 250 249 250 252 253 254 254 255 257 259 263 269 272 273 274 274 274 275 276 277 278 278
242 240 240 242 246 250 258 267 272 273 276 287 285 271 256 253 257 261 267 269 274 281 283 278 269 267 271 269 268 274 281 287 296 302 305 307 306 299 295 298 305 317 322 317 316 312 307 302 294 294 265 255 244 240 237 230 228 229 230 232 237 239 239 242 242 243 245 247 249 251 254 256 261 264 268 272 274 276 276 274 275 275 275 276 277
247 246 243 243 247 251 257 265 275 279 282 293 293 283 275 268 268 269 271 274 280 285 293 293 279 268 264 266 267 269 275 282 293 301 306 308 307 303 297 297 300 308 312 305 303 304 308 307 304 306 300 301 265 259 259 251 244 237 234 232 236 238 236 237 240 241 242 242 244 246 249 251 255 259 261 265 267 269 271 270 270 270 271 273 274
248 247 245 248 253 257 261 264 274 281 284 292 295 293 288 281 278 277 276 279 284 286 294 303 296 276 263 263 264 265 270 277 288 294 299 301 299 299 295 292 293 296 299 299 299 299 299 300 299 299 294 302 288 278 271 260 262 255 252 247 248 250 243 240 241 242 243 243 244 246 248 249 249 252 253 256 257 259 261 261 263 263 266 269 271
248 249 249 252 259 265 268 267 274 280 284 289 293 296 295 288 280 275 276 279 283 282 285 297 301 284 265 263 263 263 266 270 280 288 294 294 288 288 286 283 282 282 285 288 295 295 294 293 293 296 294 290 285 288 294 282 282 268 268 271 266 265 258 254 248 244 243 242 243 244 248 251 252 252 251 252 252 254 255 256 257 258 260 263 266
250 252 252 255 261 267 269 268 272 276 279 284 288 294 299 297 285 273 273 277 278 279 280 289 296 284 268 266 265 263 265 267 275 282 289 290 282 276 274 273 271 272 273 273 281 285 285 289 289 292 291 289 286 286 290 294 306 316 329 324 305 292 280 270 259 250 244 240 240 242 245 248 251 253 252 253 254 255 257 258 259 261 263 264 267
257 258 259 260 265 269 268 266 270 276 279 282 285 289 296 303 298 281 274 274 274 274 279 287 291 280 266 267 267 263 263 265 270 277 286 288 276 267 264 263 262 264 265 264 270 271 271 280 285 287 286 283 280 277 279 281 287 293 302 305 299 299 286 273 260 253 249 244 244 244 246 248 251 255 256 257 260 262 264 268 273 275 278 280 280
265 266 267 268 269 271 269 266 271 277 282 285 287 289 292 298 304 295 279 272 271 271 277 285 287 279 269 267 267 265 264 263 265 271 282 284 271 262 258 256 256 258 260 259 262 263 264 271 276 275 273 272 270 269 268 267 270 271 272 272 269 267 257 247 240 237 241 245 246 247 251 255 259 263 266 269 271 277 282 289 294 295 297 297 298
266 267 269 271 271 270 268 267 272 277 281 284 286 289 290 292 301 304 289 273 268 270 276 281 282 280 274 271 268 266 265 264 263 266 275 277 268 261 257 254 255 256 257 257 259 261 262 267 272 267 260 258 260 263 261 259 259 261 263 262 261 260 256 252 247 242 241 243 245 248 250 254 260 265 269 276 279 283 288 293 296 297 298 300 302
271 269 268 269 269 269 268 269 274 278 281 282 285 285 286 289 296 305 300 280 268 268 276 277 277 279 277 275 273 268 266 264 263 262 267 270 263 257 258 258 256 255 256 257 258 260 261 263 268 266 259 256 262 264 259 255 253 253 257 258 257 256 255 255 255 255 255 255 257 258 261 263 267 271 272 274 279 282 285 288 291 294 296 298 298
276 272 268 267 268 269 270 272 276 280 282 282 283 283 284 288 293 299 302 291 272 266 274 275 272 278 281 279 276 272 268 264 262 259 259 261 256 253 256 259 258 257 257 259 259 259 260 261 263 267 266 264 266 264 255 252 251 250 251 253 255 253 253 253 254 257 258 260 261 262 266 269 271 274 276 278 279 279 280 281 284 286 288 289 288
274 270 266 265 265 266 267 270 274 277 280 280 279 280 282 285 288 292 297 298 283 268 270 274 271 275 280 280 279 277 273 267 261 256 255 254 251 251 254 256 258 258 257 259 261 261 261 261 261 264 268 267 265 259 252 251 251 250 248 249 251 252 254 254 254 256 258 259 261 263 265 267 269 272 274 276 277 278 279 279 280 279 279 280 282
269 267 264 265 264 264 265 266 270 274 277 280 280 279 278 279 282 286 290 295 292 277 269 269 269 273 278 280 282 282 279 274 265 256 251 250 249 249 253 256 256 255 257 259 261 262 262 263 263 263 265 266 264 258 254 252 249 247 247 248 250 254 257 259 260 260 260 261 262 266 268 269 271 272 273 275 277 279 279 279 279 279 281 282 285
268 267 266 267 266 266 268 270 273 275 277 281 284 282 278 277 280 284 288 289 291 285 271 263 263 269 277 283 286 286 282 276 271 262 252 247 247 249 254 258 256 254 257 261 262 264 264 264 264 263 263 264 264 260 257 254 248 245 246 249 252 256 259 262 265 265 264 265 266 268 270 270 271 273 275 276 278 279 280 281 282 283 285 287 289
268 268 268 269 269 271 273 275 276 277 279 281 284 283 280 279 282 286 289 287 285 283 272 261 259 263 272 280 287 291 288 282 277 269 257 247 244 248 255 257 258 258 260 262 264 267 267 266 264 262 261 262 262 261 258 255 249 244 243 246 251 257 262 264 266 267 267 267 269 270 270 270 272 274 276 279 281 284 285 286 286 286 287 288 290
270 271 272 272 273 275 277 275 274 275 277 279 280 282 281 280 282 288 290 287 282 279 274 264 256 256 263 270 279 288 288 289 287 275 259 249 246 248 255 259 260 261 262 264 267 269 269 268 266 262 260 259 259 259 256 255 251 247 245 246 252 259 265 267 266 266 267 269 270 271 272 274 276 277 278 281 285 287 288 288 287 287 288 289 289
273 274 274 274 276 280 281 278 276 275 274 275 275 277 280 278 279 286 290 290 284 276 274 267 256 252 255 260 266 273 278 289 295 285 263 250 245 245 249 254 257 259 261 263 265 267 267 268 267 264 261 258 257 255 254 253 252 251 251 251 255 261 267 270 268 266 267 269 269 271 275 278 280 280 281 283 285 286 288 288 288 287 287 288 288
276 277 276 277 281 284 284 281 278 275 273 273 272 272 273 272 275 283 288 290 286 276 272 270 261 252 251 255 259 265 273 283 290 285 272 256 246 242 242 243 246 250 256 261 263 264 265 266 266 264 263 261 257 254 251 250 251 252 254 255 257 260 264 266 266 266 267 269 270 274 279 282 282 281 280 281 283 285 288 288 288 288 288 289 289
278 277 277 279 281 281 281 280 276 274 273 274 273 271 270 269 271 276 281 284 281 274 271 271 266 255 251 254 257 261 269 276 278 278 276 269 256 243 238 237 240 246 254 261 264 263 262 262 263 263 262 260 257 252 248 247 248 250 252 253 255 257 260 262 262 264 267 269 273 277 280 281 281 280 280 282 285 289 290 289 288 288 288 288 288
279 279 281 280 277 275 274 274 273 275 277 278 276 274 272 271 270 271 274 276 274 271 270 270 267 261 255 252 255 258 262 270 272 269 270 272 267 255 241 240 248 254 259 264 263 260 258 257 258 259 259 256 251 247 244 243 245 248 250 250 251 254 258 260 261 263 266 271 277 279 280 281 281 280 282 287 291 293 292 289 287 286 286 285 285
281 284 286 282 279 277 274 272 273 275 278 279 277 275 273 272 269 267 268 269 267 266 268 268 266 264 259 254 254 256 259 265 267 262 260 264 267 265 258 256 260 259 261 267 265 262 262 260 258 258 261 261 252 242 239 238 240 244 247 248 249 253 257 260 262 263 266 273 278 278 279 282 282 281 285 291 293 293 291 289 286 285 284 284 284
283 289 287 282 280 280 279 277 277 277 277 276 275 273 272 271 268 265 265 265 264 262 265 267 265 262 260 256 254 255 258 260 258 255 254 255 260 265 266 270 274 269 266 269 267 266 268 268 267 263 263 266 261 248 239 235 236 240 245 249 251 253 257 262 264 266 268 273 277 278 280 284 283 284 288 291 292 292 291 289 286 283 283 283 284
286 292 289 285 281 278 278 277 277 277 276 273 269 266 266 268 267 265 263 262 262 262 263 263 261 259 258 256 254 253 254 256 255 253 254 255 257 263 265 271 276 274 271 270 268 267 269 269 268 265 261 262 261 256 248 238 233 236 242 249 252 254 258 262 266 267 269 272 276 279 282 283 283 286 289 291 292 293 292 288 283 280 279 279 279
288 290 289 289 286 281 278 276 276 276 274 272 268 267 268 268 267 266 266 264 263 263 261 258 257 257 256 255 254 253 253 253 254 254 254 257 260 263 264 266 269 271 271 273 271 269 269 269 266 261 260 259 256 254 252 244 234 233 238 245 251 254 257 262 266 267 269 272 276 279 281 280 282 287 290 292 293 293 290 285 280 277 274 274 275
288 290 292 292 288 284 281 279 279 277 276 274 274 276 275 269 266 267 268 266 263 262 260 257 256 257 257 256 254 253 252 251 252 254 254 257 260 262 263 263 265 268 270 273 273 271 269 268 267 261 258 260 259 256 254 249 238 232 235 242 248 252 256 261 265 267 270 273 276 277 277 278 282 288 290 291 291 289 286 281 278 275 272 269 267
289 293 296 294 289 285 283 281 280 280 280 280 280 280 277 274 273 273 271 268 265 265 265 261 259 257 256 256 255 253 252 250 250 253 254 255 257 258 261 264 264 267 269 270 271 272 270 268 267 263 259 260 261 258 257 254 245 236 235 240 245 250 255 260 263 266 271 273 274 274 274 277 283 287 288 288 285 282 280 278 275 273 271 266 260
290 294 295 293 290 288 287 286 285 284 284 285 287 287 285 283 281 276 271 269 266 262 258 256 255 253 252 253 253 252 251 249 248 250 253 254 254 255 259 263 264 265 267 267 267 268 268 268 267 265 265 263 259 256 256 255 248 238 234 237 243 249 254 257 261 267 271 273 272 271 272 278 283 285 284 281 277 275 274 272 269 267 266 262 261
291 293 293 290 289 290 290 289 288 287 285 285 286 286 285 282 275 269 267 267 265 260 252 247 247 249 249 250 250 250 250 249 247 247 250 253 254 252 255 259 261 263 265 265 264 263 264 266 268 270 271 265 256 253 254 252 247 239 234 237 243 248 251 256 261 267 270 270 269 270 274 279 282 282 278 273 270 269 266 263 260 258 258 258 260
290 291 289 287 287 288 288 288 287 285 284 282 281 280 278 275 271 269 269 269 269 266 260 254 251 252 253 252 251 250 249 248 247 246 247 250 252 251 251 253 256 258 260 262 262 260 260 263 267 271 273 266 256 252 251 250 247 242 239 241 245 249 252 257 262 265 266 266 266 270 274 277 278 276 270 266 266 263 258 256 252 247 250 253 255
287 285 285 284 285 285 285 286 285 284 282 280 278 277 274 273 274 274 273 270 268 267 263 258 255 255 256 256 256 255 252 250 249 247 247 248 248 250 250 250 252 253 254 259 262 260 257 259 263 267 272 268 260 255 252 249 248 246 244 244 247 250 253 255 258 260 260 262 265 269 272 273 270 265 262 262 261 257 253 247 237 234 240 246 251
283 281 281 281 282 284 284 285 285 284 282 279 277 275 274 274 275 276 276 272 268 265 261 258 255 253 253 254 254 255 255 254 253 250 248 247 246 247 248 249 250 249 250 255 260 258 255 256 260 264 269 268 262 257 253 249 247 247 245 244 247 249 250 251 252 253 255 259 262 265 267 265 258 254 256 257 254 250 246 237 228 229 236 244 251
280 277 276 277 280 282 284 285 285 285 283 280 277 276 275 274 273 274 274 273 270 266 262 259 256 253 250 249 249 250 251 254 254 252 250 248 245 244 246 249 250 249 249 250 253 254 253 254 257 261 266 265 259 255 251 247 245 245 245 245 245 245 245 245 246 248 252 255 257 258 257 252 248 247 250 250 246 243 238 232 229 230 237 244 250
278 274 273 275 277 280 283 285 286 286 284 280 278 276 275 274 272 272 271 271 269 267 263 260 257 256 254 251 248 246 247 250 252 251 250 248 246 245 245 247 249 249 249 249 250 252 251 251 253 257 261 261 257 252 248 245 244 243 243 242 240 240 241 242 244 247 249 250 251 250 246 241 239 240 241 237 234 232 228 227 228 229 235 240 241
280 274 273 274 278 281 283 285 286 286 284 281 278 275 274 273 271 270 269 269 267 265 265 262 259 259 259 258 255 251 248 249 250 251 251 249 247 246 246 246 246 247 249 250 252 253 251 249 250 253 257 259 258 254 248 245 245 244 242 239 237 237 238 241 244 246 246 246 246 241 235 232 230 231 230 223 221 222 221 222 224 226 231 234 236
282 278 276 276 279 282 283 284 285 285 284 282 280 277 274 273 272 271 269 269 268 267 267 266 263 261 261 260 258 255 253 251 250 250 252 252 250 248 247 246 247 248 249 251 255 255 253 250 248 250 252 255 257 255 251 247 245 243 240 239 239 239 239 241 243 243 244 246 242 232 226 226 225 224 222 217 214 215 217 219 221 223 227 230 233
282 279 278 279 280 282 282 282 283 284 284 284 283 280 277 274 273 272 270 269 268 267 266 266 266 264 263 262 259 257 255 252 250 249 250 251 250 248 247 246 248 249 250 251 255 257 255 251 249 248 249 252 255 254 251 246 242 240 238 237 238 236 236 240 241 240 243 243 235 226 223 223 223 222 220 215 213 212 212 215 218 221 223 225 228
284 282 281 281 282 282 282 282 282 282 283 284 284 283 281 278 274 271 270 269 268 267 266 265 266 266 265 263 261 260 258 255 252 250 249 248 247 246 246 246 247 249 251 251 253 255 254 251 249 248 247 248 250 249 247 244 239 236 232 232 233 233 234 237 237 238 240 236 225 219 220 220 220 222 219 214 212 211 211 214 216 218 219 221 223
289 286 285 285 285 284 284 283 282 282 283 283 282 283 283 281 277 273 269 268 268 268 267 265 264 265 265 264 263 261 260 258 255 253 252 250 247 245 244 244 245 247 249 251 250 251 251 250 249 248 247 246 246 246 244 240 237 234 230 228 229 231 234 235 236 237 234 228 220 214 215 218 219 221 218 213 212 213 215 217 217 218 218 217 217
291 290 289 287 286 285 284 283 282 282 282 281 280 280 281 282 280 277 272 269 268 269 269 266 264 263 264 266 265 263 260 257 256 255 255 253 251 249 246 245 245 246 247 248 248 247 247 248 248 248 247 245 244 246 244 238 234 232 230 228 227 229 231 232 236 236 229 222 216 211 211 215 219 220 217 212 213 215 216 217 216 216 215 212 212
293 292 290 288 285 283 282 282 282 281 280 280 279 280 281 281 280 278 274 270 267 268 269 270 268 265 264 264 265 264 261 258 255 255 254 254 253 252 250 248 247 246 245 245 245 244 245 246 247 249 247 243 242 244 241 234 227 225 226 228 229 232 233 232 232 231 226 221 215 210 209 212 213 216 215 212 213 214 214 216 215 213 211 208 208
293 292 289 287 285 284 283 282 282 282 281 280 280 281 281 281 280 278 275 271 268 267 269 270 270 269 266 264 263 262 261 258 255 253 253 253 253 253 252 250 247 246 244 243 242 242 243 244 246 248 246 242 241 241 237 232 230 228 227 228 229 232 235 233 229 226 222 219 216 214 214 214 216 217 216 214 214 215 214 214 214 211 207 206 208
292 291 288 286 284 284 284 284 284 284 282 282 282 282 281 281 280 278 275 271 268 267 268 268 269 269 268 267 264 261 258 254 251 251 250 250 252 252 253 253 250 247 245 243 242 242 243 244 245 246 245 241 239 239 238 236 235 233 229 227 229 231 230 228 225 222 218 215 215 217 217 216 217 218 217 216 216 216 215 215 214 211 207 207 211
293 290 288 286 285 285 285 285 285 284 284 283 283 282 281 279 278 276 274 271 268 266 266 266 266 267 267 267 266 264 259 252 249 249 248 248 249 251 252 253 252 250 247 245 244 243 244 244 244 244 244 242 239 238 239 238 236 234 231 229 230 230 228 224 221 220 217 213 213 217 218 216 217 218 219 219 219 218 218 216 213 211 209 209 213
293 291 288 287 287 287 286 286 285 285 285 284 283 283 281 280 278 276 273 271 268 265 264 264 264 263 264 265 265 265 261 256 251 248 247 245 246 248 250 250 250 250 249 248 248 247 246 245 244 242 241 241 240 238 238 237 236 235 232 230 230 232 231 227 224 223 221 215 212 215 217 216 216 218 220 221 220 219 218 216 213 210 210 211 215
291 290 289 288 288 287 286 286 285 285 285 285 283 282 281 281 279 276 274 271 268 265 263 262 261 261 261 262 262 263 261 258 255 250 246 245 245 247 249 250 249 249 249 249 248 247 246 245 245 242 240 239 239 238 237 238 238 236 232 230 229 230 231 231 230 230 227 219 213 213 214 214 215 218 219 219 218 217 217 215 213 213 213 215 217
291 290 290 289 288 288 288 288 288 287 286 285 285 283 282 281 279 278 276 273 268 264 261 259 258 258 258 258 258 259 259 258 256 252 248 246 246 247 249 249 248 247 247 246 247 246 246 247 247 245 243 241 240 240 239 238 239 238 235 232 230 230 232 234 234 232 229 222 216 212 212 212 214 217 218 217 216 218 217 214 211 212 214 217 220
294 293 292 291 290 290 290 290 290 289 288 287 286 284 282 282 281 281 280 276 270 264 259 257 255 255 257 257 256 256 257 256 255 253 250 249 249 248 248 248 248 246 245 244 244 244 243 244 244 243 242 242 243 244 243 241 241 241 239 239 238 236 235 231 227 226 225 222 216 213 213 213 213 215 216 216 215 216 219 217 214 215 217 218 222
295 295 294 293 293 294 294 294 293 292 290 288 287 285 283 282 281 281 280 278 272 263 257 254 253 253 254 255 254 253 254 255 255 254 253 253 253 250 247 248 248 247 245 244 244 244 242 242 243 242 241 242 244 246 245 244 242 238 236 236 237 235 230 224 221 221 221 218 215 214 216 215 212 213 215 214 213 214 217 219 218 219 221 220 222
296 296 295 295 296 297 296 296 294 291 290 289 287 285 283 281 278 277 277 277 272 264 257 253 252 251 251 252 252 252 252 253 254 254 253 253 253 250 247 247 248 248 246 244 243 244 244 244 246 246 245 246 247 247 246 245 242 238 234 232 229 228 225 221 219 219 218 216 214 213 215 216 213 212 211 212 214 215 217 219 220 220 222 222 224
298 298 298 298 299 298 297 295 292 290 289 288 287 285 282 278 276 274 274 274 270 262 257 253 252 252 252 251 251 251 251 252 254 255 254 251 250 249 246 245 246 247 245 243 242 243 243 243 244 244 245 247 248 246 244 243 241 240 240 236 228 225 224 222 221 219 215 215 215 213 212 214 213 210 208 208 211 214 216 220 223 224 223 221 222
301 301 301 301 299 298 295 293 291 289 288 288 288 287 283 279 276 273 272 271 266 260 257 256 254 254 253 252 251 251 251 253 254 254 253 249 248 247 245 244 245 245 243 242 243 242 242 242 242 241 242 244 244 243 242 241 241 241 240 235 229 228 227 224 221 217 211 212 214 212 210 211 210 207 206 205 205 208 212 216 222 225 224 223 223